Regional Weather Roundup
Issued by NWS

Home | Current Version | Previous Version | Graphics & Text | Print | Product List | Glossary On
Versions: 1 2 3 4 5 6 7 8 9 10 11 12 13 14 15 16 17 18 19 20 21 22 23 24 25 26 27 28 29 30 31 32 33 34 35 36 37 38 39 40 41 42 43 44 45 46 47 48 49 50
000
ASUS43 KMKX 292259
RWRWI

WISCONSIN REGIONAL WEATHER ROUNDUP
NATIONAL WEATHER SERVICE MILWAUKEE/SULLIVAN WI
500 PM CST THU JAN 29 2015

NOTE: "FAIR" INDICATES FEW OR NO CLOUDS BELOW 12,000 FEET WITH NO
SIGNIFICANT WEATHER AND/OR OBSTRUCTIONS TO VISIBILITY.

WIZ001-002-006>008-014>016-023>028-300000-
NORTHWEST WISCONSIN

CITY           SKY/WX    TMP DP  RH WIND       PRES   REMARKS
SUPERIOR ARPT  CLEAR     18   8  64 N13       30.36R WCI   4
ASHLAND        CLOUDY    22  11  62 NW15G23   30.29R WCI   9
HAYWARD        CLOUDY    20   9  62 N9G17     30.27R WCI   9
SIREN          CLOUDY    22  11  63 NW18G25   30.32R WCI   7
CUMBERLAND     CLOUDY    23  12  63 NW15      30.26R WCI  10
RICE LAKE      CLOUDY    25  15  67 NW8       30.27R WCI  16
CHETEK         CLOUDY    25  15  66 NW16G24   30.25R WCI  12
LADYSMITH      CLOUDY    24  15  67 N16       30.23R WCI  11
EAU CLAIRE     NOT AVBL
MENOMONIE      CLOUDY    28  17  63 NW17G25   30.26R WCI  16
NEW RICHMOND   MOCLDY    25  15  66 NW17G28   30.30R WCI  12
OSCEOLA        CLOUDY    26  15  63 NW12G18   30.35R WCI  15
$$

WIZ003>005-009-010-017-018-300000-
NORTH CENTRAL WISCONSIN

CITY           SKY/WX    TMP DP  RH WIND       PRES   REMARKS
MANITOWISH WTR LGT SNOW  19  12  75 NW14G21   30.14R WCI   6
ARBOR VITAE    LGT SNOW  22  15  75 N21       30.14R WCI   6
WOODRUFF       LGT SNOW  22  15  75 N21       30.14R WCI   6
RHINELANDER    FLURRIES  20  12  71 NW15G22   30.13R WCI   6
EAGLE RIVER    LGT SNOW  19  13  77 N14G24    30.11R WCI   6
LAND O LAKES   LGT SNOW  19  14  79 N13G22    30.12R WCI   6
PHILLIPS       CLOUDY    22  13  68 NW15G22   30.17R WCI   8
TOMAHAWK       CLOUDY    24  15  68 N12G21    30.13R WCI  13
MEDFORD        LGT SNOW  25  17  72 NW21G30   30.13R WCI  11
MERRILL        CLOUDY    26  15  61 N16G29    30.12R WCI  14
$$

WIZ029-030-035-036-043>047-300000-
CENTRAL WISCONSIN

CITY           SKY/WX    TMP DP  RH WIND       PRES   REMARKS
WAUSAU         CLOUDY    27  15  61 NW17G25   30.11R WCI  14
MOSINEE        CLOUDY    28  19  69 NW20G28   30.13R WCI  15
MARSHFIELD     CLOUDY    28  17  63 NW23G29   30.15R WCI  14
STEVENS POINT  CLOUDY    29  17  59 NW15G22   30.11R WCI  18
WAUPACA        CLOUDY    35  19  51 NW17G24   30.09R WCI  24
WAUTOMA        NOT AVBL
WISC RAPIDS    CLOUDY    30  18  60 NW23G31   30.16R WCI  17
CAMP DOUGLAS   NOT AVBL
$$

WIZ011>013-019>022-031-037>040-048>050-300000-
NORTHEAST WISCONSIN

CITY           SKY/WX    TMP DP  RH WIND       PRES   REMARKS
ANTIGO         CLOUDY    24  17  76 N18G28    30.08R WCI  10
SHAWANO        CLOUDY    32  17  55 N15G28    30.09R WCI  22
OCONTO         CLOUDY    29  19  64 MISG      30.07R
STURGEON BAY   CLOUDY    28  18  64 N16G25    30.08R WCI  17
GREEN BAY      CLOUDY    31  18  58 N16       30.09R WCI  20
MANITOWOC      NOT AVBL
APPLETON       MOCLDY    30  18  59 NW23G32   30.08R WCI  17
CLINTONVILLE   CLOUDY    32  18  55 N20G26    30.09R WCI  20
OSHKOSH        CLOUDY    33  19  56 NW13      30.09R WCI  24
$$

WIZ032>034-041-042-053>061-300000-
SOUTHWEST WISCONSIN

CITY           SKY/WX    TMP DP  RH WIND       PRES   REMARKS
LA CROSSE      CLOUDY    32  20  61 N16       30.25R WCI  21
SPARTA         CLOUDY    32  21  64 NW16G26   30.20R WCI  21
VIROQUA        CLOUDY    32  22  68 NW23      30.17R WCI  19
BOSCOBEL       CLOUDY    36  21  54 NW8G18    30.21R WCI  30
PRAIRIE DU CHI CLOUDY    34  22  61 NW21G30   30.21R WCI  22
PLATTEVILLE    CLOUDY    33  25  71 W17       30.17R WCI  23
$$

WIZ056-057-062-063-064-067-068-300000-
SOUTH CENTRAL WISCONSIN

CITY           SKY/WX    TMP DP  RH WIND       PRES   REMARKS
REEDSBURG      CLOUDY    33  21  62 NW21      30.14R WCI  20
BARABOO/DELLS  CLOUDY    33  20  59 NW18G25   30.12R WCI  22
LONE ROCK      NOT AVBL
MINERAL POINT  CLOUDY    34  23  64 NW14G25   30.14R WCI  24
MADISON        CLOUDY    34  20  56 NW9G18    30.13R WCI  27
MIDDLETON      CLOUDY    35  22  60 NW13G18   30.13R WCI  26
WATERTOWN      CLOUDY    33  21  61 NW16G28   30.09R WCI  23
MONROE         CLOUDY    34  27  75 NW13G18   30.12R WCI  25
JANESVILLE     CLOUDY    36  25  64 N24G30    30.12R WCI  24
$$

WIZ051-052-058>065-066-070>072-300000-
SOUTHEAST WISCONSIN

CITY           SKY/WX    TMP DP  RH WIND       PRES   REMARKS
MILWAUKEE      CLOUDY    35  22  58 NW18G26   30.08R WCI  24
WAUKESHA       CLOUDY    32  21  64 NW17G29   30.08R WCI  21
MILWAUKEE/TIMM CLOUDY    34  21  60 NW14G25   30.07R WCI  24
RACINE         CLOUDY    35  23  61 NW12      30.09R WCI  27
BURLINGTON     CLOUDY    32  23  70 NW17G26   30.09R WCI  21
KENOSHA        CLOUDY    35  24  64 NW12G25   30.09R WCI  27
FOND DU LAC    CLOUDY    34  20  56 N15       30.08R WCI  24
SHEBOYGAN      CLOUDY    34  20  56 NW16G30   30.06R WCI  24
WEST BEND      CLOUDY    32  21  64 NW18      30.06R WCI  20
JUNEAU         CLOUDY    32  22  67 NW14      30.09R WCI  22
$$

LSZ147-162-300000-
LAKE SUPERIOR

STATION/POSITION TIME  TEMP    WIND        PRES    WAVE
                       AIR SEA DIR/SP/G            HT/PER
                 (UTC) (F)     (DEG/KT/KT) (MB)    (FT/S)
DEVILS ISLAND    2200   22     320/ 25/ 30 1025.7R
PORT WING        2200   22     300/ 21     1025.7R
SAXON HARBOR     2200   25     330/ 21/ 24 1023.4R
$$

LMZ867-665-643>646-300000-
LAKE MICHIGAN

STATION/POSITION TIME  TEMP    WIND        PRES    WAVE
                       AIR SEA DIR/SP/G            HT/PER
                 (UTC) (F)     (DEG/KT/KT) (MB)    (FT/S)
NORTHPORT PIER   2203   26     360/ 24     1016.3R
SISTER BAY       2113   31     340/ 19/ 22   N/A
KEWAUNEE LAKESHO 2200   33     350/ 15/ 26 1015.2R
SHEBOYGAN LAKESH 2200   35     310/ 13/ 17 1017.4R
PORT WASHINGTON  2220   35     300/  9/ 24 1018.3R
MILWAUKEE LAKESH 2200   35     330/ 11/ 17   N/A
KENOSHA   LAKESH 2200   35     320/ 10/ 16 1017.6R
$$

TC  - TEMPERATURE IN CELSIUS
VSB - VISIBILITY IN STATUTE MILES
WCI - WIND CHILL INDEX
HX  - HEAT INDEX




USA.gov is the U.S. government's official web portal to all federal, state and local government web resources and services.